Regional Weather Roundup
Issued by NWS

Home | Current Version | Previous Version | Text Only | Print | Product List | Glossary Off
Versions: 1 2 3 4 5 6 7 8 9 10 11 12 13 14 15 16 17 18 19 20 21 22 23 24 25 26 27 28 29 30 31 32 33 34 35 36 37 38 39 40 41 42 43 44 45 46 47 48 49 50

000
ASUS43 KLOT 230800
RWRIL

ILLINOIS REGIONAL WEATHER ROUNDUP
NATIONAL WEATHER SERVICE CHICAGO/ROMEOVILLE IL
300 AM CDT WED JUL 23 2014

NOTE: "FAIR" INDICATES FEW OR NO CLOUDS BELOW 12,000 FEET WITH NO
SIGNIFICANT WEATHER AND/OR OBSTRUCTIONS TO VISIBILITY.

* THESE STATIONS ARE NOT UNDER NWS QUALITY CONTROL. THEY ALSO MAY NOT
  REPORT WEATHER SUCH AS PRECIPITATION OR FOG.

ILZ001-002-007-009-015-016-024-230900-
NORTHWEST ILLINOIS

CITY           SKY/WX    TMP DP  RH WIND       PRES   REMARKS
MOLINE         CLEAR     75  66  73 N5        30.06S
STERLING*      CLEAR     72  64  78 NE8       30.07R
$$

ILZ003-004-008-010-011-017-018-230900-
NORTH CENTRAL ILLINOIS

CITY           SKY/WX    TMP DP  RH WIND       PRES   REMARKS
ROCKFORD       PTCLDY    70  62  76 E16       30.09R
FREEPORT*      CLEAR     67  63  87 N7        30.11R
$$

ILZ005-006-012>014-019>023-230900-
NORTHEAST ILLINOIS

CITY           SKY/WX    TMP DP  RH WIND       PRES   REMARKS
CHICAGO-OHARE  MOCLDY    67  55  65 N20G29    30.07R
CHICAGO-MIDWAY CLOUDY    69  61  75 N21G29    30.05R
AURORA         PTCLDY    70  61  73 NE14G25   30.06R
LANSING*       CLOUDY    67  62  84 N16       30.03R
WAUKEGAN       MOCLDY    64  56  75 N14G24    30.07R
DUPAGE AIRPORT CLOUDY    67  60  78 NE20G26   30.08R
WHEELING       MOCLDY    67  56  67 N18G25    30.09R
NORTHERLY ISL    N/A     66  59  78 MISG        N/A
$$

LMZ740>746-230900-
SOUTHERN LAKE MICHIGAN

STATION/POSITION SKY/WX   TEMP    WIND        PRES    VSBY  WAVE
                          AIR SEA DIR/SP/G                  HT/PER
                          (F)     (DEG/KT/KT) (MB)    (MI)  (FT/S)
SOUTHERN BUOY              63 61  350/ 23/ 27 1016.5R         5/ 5
WAUKEGAN HARBOR            62      10/ 21/ 28 1019.0R
HARRISON CRIB              68      10/ 26/ 29   N/A
BURNHAM HARBOR             66     350/ 14/ 23   N/A
CALUMET HARBOR             67     340/ 12/ 20 1016.0R
BURNS HARBOR               71     290/  8/ 47 1015.9F
MICHIGAN CITY              71     220/ 11/ 12   N/A
$$

ILZ025>027-034>036-040-047-049-050-058-095>099-230900-
WEST-CENTRAL ILLINOIS

CITY           SKY/WX    TMP DP  RH WIND       PRES   REMARKS
QUINCY         PTCLDY    78  72  81 N13       30.03F HX  80
GALESBURG*     PTCLDY    73  69  90 N8        30.06S
MACOMB*        PTCLDY    74  71  91 N10       30.06S
$$

ILZ028>032-037-038-041>044-048-051>054-059>061-230900-
CENTRAL ILLINOIS

CITY           SKY/WX    TMP DP  RH WIND       PRES   REMARKS
PONTIAC        PTCLDY    75  73  94 NE8G17    30.01S
PEORIA         PTCLDY    80  72  76 N12G18    30.01S HX  84
SPRINGFIELD    CLOUDY    77  72  84 W3        30.01S
TAYLORVILLE    NOT AVBL
$$

ILZ033-039-045-046-055>057-062-063-230900-
EAST-CENTRAL ILLINOIS

CITY           SKY/WX    TMP DP  RH WIND       PRES   REMARKS
CHAMPAIGN      MOCLDY    74  70  87 W3        30.01S
MATTOON        MOCLDY    76  67  73 SW7       29.99F
$$

ILZ079-100>102-230900-
SOUTHWEST ILLINOIS

CITY           SKY/WX    TMP DP  RH WIND       PRES   REMARKS
CAHOKIA*       CLOUDY    80  71  74 SW6       29.99F HX  84
SPARTA*        CLOUDY    75  68  78 SW5       30.03R
$$

ILZ064>066-069>071-074>076-080>082-084>086-088>090-092>094-230900-
SOUTH-CENTRAL ILLINOIS

CITY           SKY/WX    TMP DP  RH WIND       PRES   REMARKS
CARBONDALE     CLOUDY    73  68  84 S5        30.03S
MT. VERNON     MOCLDY    73  66  78 S6        30.02F
SALEM*         CLOUDY    76  71  82 S6        30.01S
$$

ILZ067-068-072-073-078-083-087-091-230900-
SOUTHEAST ILLINOIS

CITY           SKY/WX    TMP DP  RH WIND       PRES   REMARKS
FAIRFIELD*     PTCLDY    72  70  94 CALM      30.02R FOG
HARRISBURG*    CLEAR     67  67 100 CALM      30.04F FOG
ROBINSON*      PTCLDY    71  70  95 CALM      30.01S FOG
$$

ABBREVIATIONS USED IN REMARKS
   TC - TEMPERATURE IN CELSIUS
  WCI - WIND CHILL INDEX
   HX - HEAT INDEX
  VSB - VISIBILITY
$$



USA.gov is the U.S. government's official web portal to all federal, state and local government web resources and services.